AC2EV Weather Reports


Display with metric or nautical units.
time (UTC)temp
F
wind
direction
speed
MPH
gust
MPH
rain 1hr
in
rain 24hr
in
rain mn
in
humidity
%
barometer
mb
20260902154911 79 228 0.0 8.0 0.00 0.23 0.23 80 1014.0
20260902154539 78 204 0.0 6.0 0.00 0.23 0.23 80 1013.9
20260902154102 78 200 0.0 6.0 0.00 0.23 0.23 82 1013.9
20260902153545 77 200 0.0 5.0 0.00 0.23 0.23 83 1014.0
20260902153105 76 199 0.0 1.0 0.00 0.23 0.23 85 1014.0
20260902152411 76 200 0.0 3.0 0.00 0.23 0.23 86 1014.0
20260902152058 75 200 0.0 3.0 0.00 0.23 0.23 87 1014.1
20260902151411 74 200 0.0 2.0 0.00 0.23 0.23 88 1014.2
20260902151059 74 209 0.0 0.0 0.00 0.23 0.23 89 1014.0
20260902150411 73 209 0.0 7.0 0.00 0.23 0.23 89 1014.2
20260902145911 73 209 0.0 7.0 0.00 0.23 0.23 90 1014.2
20260902145411 72 211 0.0 5.0 0.00 0.23 0.23 90 1014.2
20260902144910 72 186 0.0 2.0 0.00 0.23 0.23 90 1014.3
20260902144540 72 186 0.0 0.0 0.00 0.23 0.23 90 1014.4
20260902144102 72 186 0.0 6.0 0.00 0.23 0.23 89 1014.4
20260902143411 72 185 0.0 6.0 0.00 0.23 0.23 89 1014.4
20260902142911 72 185 0.0 0.0 0.00 0.23 0.23 89 1014.6
20260902142411 71 12 0.0 11.0 0.00 0.23 0.23 89 1014.5
20260902141908 71 12 0.0 11.0 0.00 0.23 0.23 89 1014.6
20260902141407 71 11 0.0 4.0 0.00 0.23 0.23 88 1014.7
20260902140907 71 11 0.0 2.0 0.00 0.23 0.23 89 1014.9
20260902140405 70 11 0.0 2.0 0.00 0.23 0.23 89 1014.9
20260902140101 70 14 0.0 2.0 0.00 0.23 0.23 89 1014.9
20260902135405 70 15 0.0 3.0 0.00 0.23 0.23 89 1014.9
20260902134902 70 14 0.0 3.0 0.00 0.23 0.23 89 1015.0
20260902134401 69 9 0.0 1.0 0.02 0.23 0.23 89 1015.0
20260902134103 69 9 0.0 2.0 0.04 0.23 0.23 90 1014.6
20260902133401 69 9 0.0 2.0 0.06 0.23 0.23 90 1014.7
20260902132901 69 26 0.0 0.0 0.11 0.23 0.23 90 1015.4
20260902132401 69 30 0.0 0.0 0.19 0.23 0.23 90 1015.5
20260902131901 69 30 0.0 0.0 0.22 0.23 0.23 90 1015.3
20260902131401 69 30 0.0 0.0 0.23 0.23 0.23 90 1015.2
20260902130858 69 31 0.0 0.0 0.23 0.23 0.23 90 1015.3
20260902130543 69 32 0.0 0.0 0.23 0.23 0.23 90 1015.5
20260902125358 69 31 0.0 1.0 0.23 0.23 0.23 90 1015.9
20260902124359 70 32 0.0 2.0 0.21 0.21 0.21 90 1015.3
20260902123859 70 32 0.0 8.0 0.19 0.19 0.18 90 1015.4
20260902123358 71 30 1.0 19.0 0.17 0.17 0.16 90 1015.5
20260902122858 72 27 1.0 19.0 0.12 0.12 0.09 90 1015.7
20260902122358 73 22 0.0 1.0 0.04 0.04 0.03 90 1015.1
20260902121356 73 20 0.0 0.0 0.00 0.00 0.00 90 1014.7
20260902120352 73 19 0.0 0.0 0.00 0.00 0.00 90 1014.0
20260902115348 73 21 0.0 0.0 0.00 0.00 0.00 90 1014.1
20260902114848 73 21 0.0 0.0 0.00 0.00 0.00 90 1014.1
20260902114349 73 22 0.0 0.0 0.00 0.00 0.00 90 1013.7
20260902113526 73 20 0.0 0.0 0.00 0.01 0.00 90 1013.4
20260902113048 73 19 0.0 0.0 0.00 0.01 0.00 90 1013.3
20260902112336 73 20 0.0 0.0 0.00 0.01 0.00 90 1012.7
20260902111334 73 19 0.0 0.0 0.00 0.01 0.00 90 1012.6
20260902110834 73 20 0.0 0.0 0.00 0.01 0.00 90 1013.1
20260902110334 73 19 0.0 0.0 0.00 0.01 0.00 90 1013.0
20260902105833 73 19 0.0 1.0 0.00 0.01 0.00 90 1013.0
20260902105331 73 19 0.0 1.0 0.00 0.01 0.00 90 1013.1
20260902104830 72 19 0.0 0.0 0.00 0.01 0.00 90 1012.8
20260902104330 72 19 0.0 0.0 0.00 0.01 0.00 90 1012.7
20260902103830 72 19 0.0 0.0 0.00 0.01 0.00 89 1012.8
20260902103329 72 19 0.0 0.0 0.00 0.01 0.00 90 1012.8
20260902102829 72 19 0.0 0.0 0.00 0.01 0.00 90 1012.9
20260902102330 72 20 0.0 0.0 0.00 0.01 0.00 90 1013.0
20260902101829 72 21 0.0 0.0 0.00 0.01 0.00 89 1012.7
20260902101329 72 20 0.0 0.0 0.00 0.01 0.00 90 1012.8
20260902100830 72 19 0.0 1.0 0.00 0.01 0.00 90 1012.8
20260902100324 71 20 0.0 1.0 0.00 0.01 0.00 90 1012.8
20260902095824 71 20 0.0 0.0 0.00 0.01 0.00 90 1013.0
20260902095322 71 19 0.0 0.0 0.00 0.01 0.00 90 1013.0
20260902094823 71 20 0.0 0.0 0.00 0.01 0.00 90 1013.1
20260902094322 71 20 0.0 0.0 0.00 0.01 0.00 90 1013.4
20260902093819 71 19 0.0 0.0 0.00 0.01 0.00 90 1013.5
20260902093516 71 19 0.0 0.0 0.00 0.01 0.00 90 1013.6
20260902092818 71 19 0.0 0.0 0.00 0.01 0.00 90 1013.7
20260902092318 71 20 0.0 0.0 0.00 0.01 0.00 90 1013.6
20260902091816 71 20 0.0 1.0 0.00 0.01 0.00 90 1013.7
20260902091314 71 20 0.0 1.0 0.00 0.01 0.00 90 1013.8
20260902090812 71 21 0.0 0.0 0.00 0.01 0.00 90 1013.8
20260902090310 72 21 0.0 1.0 0.00 0.01 0.00 90 1013.8
20260902085810 72 20 0.0 1.0 0.00 0.01 0.00 90 1013.8
20260902085310 72 20 0.0 1.0 0.00 0.01 0.00 90 1013.8
20260902084810 72 19 0.0 4.0 0.00 0.01 0.00 90 1013.9
20260902084310 72 19 0.0 4.0 0.00 0.01 0.00 90 1013.9
20260902083808 72 19 0.0 0.0 0.00 0.01 0.00 90 1013.9
20260902083307 72 20 0.0 0.0 0.00 0.01 0.00 90 1013.9
20260902082808 72 20 0.0 0.0 0.00 0.01 0.00 90 1014.1
20260902082310 72 20 0.0 0.0 0.00 0.01 0.00 90 1014.1
20260902081807 72 20 0.0 0.0 0.00 0.01 0.00 90 1014.2
20260902081306 72 19 0.0 0.0 0.00 0.01 0.00 90 1014.2
20260902080806 72 22 0.0 0.0 0.00 0.01 0.00 90 1014.3
20260902080305 71 21 0.0 0.0 0.00 0.01 0.00 90 1014.2
20260902075806 71 20 0.0 0.0 0.00 0.01 0.00 90 1014.3
20260902075306 71 19 0.0 1.0 0.00 0.01 0.00 90 1014.3
20260902074806 71 20 0.0 1.0 0.00 0.01 0.00 90 1014.4
20260902074303 71 20 0.0 0.0 0.00 0.01 0.00 90 1014.4
20260902073802 71 19 0.0 0.0 0.00 0.01 0.00 90 1014.3
20260902073302 71 19 0.0 0.0 0.00 0.01 0.00 90 1014.3
20260902072802 71 19 0.0 0.0 0.00 0.01 0.00 90 1014.4
20260902072308 71 19 0.0 0.0 0.00 0.01 0.00 90 1014.4
20260902071801 71 19 0.0 0.0 0.00 0.01 0.00 90 1014.5
20260902071301 71 17 0.0 0.0 0.00 0.01 0.00 90 1014.5
20260902070802 71 17 0.0 0.0 0.00 0.01 0.00 90 1014.5
20260902070301 71 17 0.0 2.0 0.00 0.01 0.00 89 1014.5
20260902065801 71 17 0.0 2.0 0.00 0.01 0.00 89 1014.4
20260902065301 70 17 0.0 0.0 0.00 0.01 0.00 89 1014.5
20260902064801 70 18 0.0 0.0 0.00 0.01 0.00 89 1014.5
20260902064301 70 19 0.0 0.0 0.00 0.01 0.00 89 1014.5
20260902063802 70 19 0.0 0.0 0.00 0.01 0.00 89 1014.4
20260902063301 70 19 0.0 0.0 0.00 0.01 0.00 89 1014.4
20260902062802 70 19 0.0 0.0 0.00 0.01 0.00 89 1014.3
20260902062305 70 19 0.0 0.0 0.00 0.01 0.00 89 1014.2
20260902061801 70 19 0.0 0.0 0.00 0.01 0.00 89 1014.3
20260902061301 70 20 0.0 0.0 0.00 0.01 0.00 89 1014.4
20260902060801 70 20 0.0 0.0 0.00 0.01 0.00 89 1014.5
20260902060302 70 20 0.0 0.0 0.00 0.01 0.00 89 1014.6
20260902055759 70 21 0.0 0.0 0.00 0.01 0.00 89 1014.6
20260902055253 69 21 0.0 0.0 0.00 0.01 0.00 89 1014.5
20260902054747 69 21 0.0 0.0 0.00 0.01 0.00 89 1014.6
20260902054240 69 24 0.0 0.0 0.00 0.01 0.00 89 1014.6
20260902053735 69 24 0.0 0.0 0.00 0.01 0.00 89 1014.6
20260902053235 69 26 0.0 0.0 0.00 0.01 0.00 90 1014.7
20260902052734 69 27 0.0 0.0 0.00 0.01 0.00 90 1014.7
20260902052234 69 28 0.0 0.0 0.00 0.01 0.00 90 1014.7
20260902051734 69 27 0.0 0.0 0.00 0.01 0.00 90 1014.7
20260902051234 69 26 0.0 0.0 0.00 0.01 0.00 90 1014.7
20260902050730 69 26 0.0 0.0 0.00 0.01 0.00 90 1014.7
20260902050229 69 26 0.0 0.0 0.00 0.01 0.00 90 1014.7
20260902045729 69 27 0.0 0.0 0.00 0.02 0.00 90 1014.8
20260902045229 69 27 0.0 0.0 0.00 0.03 0.00 90 1014.9
20260902044730 69 26 0.0 0.0 0.00 0.04 0.00 90 1014.9
20260902044228 69 26 0.0 0.0 0.00 0.04 0.00 90 1014.8
20260902043730 70 26 0.0 0.0 0.00 0.04 0.00 90 1014.9
20260902043229 70 25 0.0 0.0 0.00 0.04 0.00 90 1014.8
20260902042729 70 25 0.0 0.0 0.00 0.04 0.00 90 1014.7
20260902042229 70 24 0.0 0.0 0.00 0.04 0.00 90 1014.7
20260902041729 70 23 0.0 0.0 0.00 0.04 0.00 90 1014.7
20260902041226 70 22 0.0 0.0 0.00 0.04 0.00 90 1014.8
20260902040725 70 21 0.0 0.0 0.00 0.04 0.00 90 1014.8
20260902040224 70 20 0.0 0.0 0.00 0.04 0.00 90 1014.8
20260902035722 70 19 0.0 0.0 0.00 0.04 0.04 90 1014.7
20260902035220 70 19 0.0 0.0 0.00 0.04 0.04 89 1014.8
20260902034718 70 19 0.0 0.0 0.00 0.04 0.04 89 1014.9
20260902034217 70 19 0.0 0.0 0.00 0.04 0.04 89 1014.9
20260902033715 70 19 0.0 0.0 0.00 0.04 0.04 89 1014.9
20260902033213 70 19 0.0 0.0 0.00 0.04 0.04 90 1014.8
20260902032712 70 20 0.0 0.0 0.00 0.04 0.04 90 1014.7
20260902032213 70 21 0.0 0.0 0.00 0.04 0.04 90 1014.7
20260902031710 70 22 0.0 0.0 0.00 0.04 0.04 90 1014.7
20260902031210 70 24 0.0 0.0 0.00 0.04 0.04 90 1014.7
20260902030710 70 24 0.0 0.0 0.00 0.04 0.04 90 1014.7
20260902030208 70 26 0.0 0.0 0.00 0.04 0.04 90 1014.8
20260902025708 70 28 0.0 0.0 0.00 0.04 0.04 90 1014.7
20260902025206 70 31 0.0 0.0 0.00 0.04 0.04 90 1014.7
20260902024706 70 30 0.0 0.0 0.00 0.04 0.04 90 1014.7
20260902024205 70 31 0.0 0.0 0.00 0.04 0.04 90 1014.7
20260902023706 70 30 0.0 0.0 0.00 0.04 0.04 90 1014.7
20260902023204 70 32 0.0 0.0 0.00 0.04 0.04 90 1014.9
20260902022704 70 31 0.0 0.0 0.00 0.04 0.04 90 1014.6
20260902022204 70 31 0.0 0.0 0.00 0.04 0.04 90 1014.7
20260902021704 70 31 0.0 0.0 0.00 0.04 0.04 90 1014.7
20260902021205 70 29 0.0 0.0 0.00 0.04 0.04 90 1014.7
20260902020704 70 30 0.0 1.0 0.00 0.04 0.04 90 1014.8
20260902020204 70 28 0.0 1.0 0.00 0.04 0.04 90 1014.9
20260902015704 71 28 0.0 0.0 0.00 0.04 0.04 90 1014.9
20260902015205 71 26 0.0 0.0 0.00 0.04 0.04 90 1015.0
20260902014704 71 26 0.0 0.0 0.00 0.04 0.04 90 1015.0
20260902014204 71 27 0.0 0.0 0.00 0.04 0.04 90 1015.0
20260902013703 71 27 0.0 0.0 0.00 0.04 0.04 90 1015.0
20260902013204 71 27 0.0 0.0 0.00 0.04 0.04 90 1014.9
20260902012703 71 30 0.0 0.0 0.00 0.04 0.04 90 1015.0
20260902012204 71 29 0.0 0.0 0.00 0.04 0.04 90 1014.9
20260902011702 71 30 0.0 0.0 0.00 0.04 0.04 90 1014.9
20260902011204 71 30 0.0 0.0 0.00 0.04 0.04 90 1014.9
20260902010702 71 30 0.0 0.0 0.00 0.04 0.04 90 1014.9
20260902010204 71 29 0.0 0.0 0.00 0.04 0.04 90 1014.8
20260902005703 71 30 0.0 0.0 0.00 0.04 0.04 90 1014.7
20260902005204 71 30 0.0 0.0 0.00 0.04 0.04 90 1014.6
20260902004702 71 30 0.0 0.0 0.00 0.04 0.04 90 1014.5
20260902004206 71 30 0.0 0.0 0.00 0.04 0.04 90 1014.4
20260902003702 71 30 0.0 0.0 0.00 0.04 0.04 90 1014.3
20260902003205 71 30 0.0 0.0 0.00 0.04 0.04 90 1014.3
20260902002703 71 30 0.0 0.0 0.00 0.04 0.04 90 1014.1
20260902002204 71 30 0.0 0.0 0.00 0.04 0.04 90 1014.1
20260902001702 71 30 0.0 0.0 0.00 0.04 0.04 90 1013.9
20260902001204 71 29 0.0 0.0 0.00 0.04 0.04 90 1013.8
20260902000702 71 29 0.0 0.0 0.00 0.04 0.04 90 1013.7
20260902000204 71 28 0.0 0.0 0.00 0.04 0.04 89 1013.8
20260901235703 71 30 0.0 0.0 0.00 0.05 0.04 89 1013.7
20260901235204 72 30 0.0 0.0 0.00 0.05 0.04 89 1013.8
20260901234703 72 31 0.0 0.0 0.00 0.08 0.04 89 1013.8
20260901234204 72 32 0.0 0.0 0.00 0.08 0.04 89 1013.8
20260901233703 72 30 0.0 0.0 0.00 0.08 0.04 89 1013.8
20260901233204 72 32 0.0 0.0 0.00 0.08 0.04 89 1013.8
20260901232703 72 32 0.0 0.0 0.00 0.08 0.04 88 1013.9
20260901232204 72 30 0.0 0.0 0.00 0.08 0.04 88 1013.9
20260901231703 72 29 0.0 0.0 0.00 0.08 0.04 88 1014.0
20260901231204 72 29 0.0 0.0 0.00 0.08 0.04 88 1014.0
20260901230703 73 28 0.0 0.0 0.00 0.08 0.04 88 1014.1
20260901230205 73 28 0.0 0.0 0.00 0.08 0.04 88 1014.1
20260901225702 73 26 0.0 0.0 0.00 0.08 0.04 88 1014.0
20260901225204 73 26 0.0 0.0 0.00 0.08 0.04 88 1014.0
20260901224656 73 26 0.0 0.0 0.00 0.08 0.04 87 1014.0
20260901224150 73 26 0.0 0.0 0.00 0.08 0.04 87 1014.0
20260901223644 73 30 0.0 0.0 0.00 0.08 0.04 87 1014.0
20260901223138 73 32 0.0 0.0 0.00 0.08 0.04 87 1014.1
20260901222636 73 198 0.0 0.0 0.00 0.08 0.04 87 1014.1
20260901222137 73 199 0.0 0.0 0.00 0.08 0.04 87 1014.1
20260901221636 74 199 0.0 0.0 0.00 0.08 0.04 86 1014.1
20260901221136 74 199 0.0 0.0 0.00 0.08 0.04 86 1014.0
20260901220635 74 199 0.0 0.0 0.00 0.08 0.04 86 1013.9
20260901220133 74 199 0.0 0.0 0.00 0.08 0.04 86 1013.9
20260901215632 74 199 0.0 0.0 0.00 0.08 0.04 85 1014.0
20260901215131 74 199 0.0 0.0 0.00 0.08 0.04 85 1013.9
20260901214631 74 199 0.0 0.0 0.00 0.08 0.04 85 1013.9
20260901214130 74 199 0.0 0.0 0.00 0.08 0.04 85 1013.9
20260901213633 75 199 0.0 0.0 0.00 0.08 0.04 85 1013.9
20260901213130 75 199 0.0 0.0 0.00 0.08 0.04 84 1013.9
20260901212631 75 199 0.0 0.0 0.00 0.08 0.04 84 1013.9
20260901212130 75 199 0.0 0.0 0.00 0.08 0.04 83 1013.9
20260901211631 76 199 0.0 0.0 0.00 0.08 0.04 85 1013.8
20260901211131 75 199 0.0 0.0 0.00 0.08 0.04 85 1013.8
20260901210631 75 199 0.0 0.0 0.00 0.08 0.04 85 1013.9
20260901210134 75 199 0.0 0.0 0.00 0.08 0.04 84 1013.9
20260901205624 75 199 0.0 0.0 0.00 0.08 0.04 84 1013.7
20260901205118 75 199 0.0 0.0 0.00 0.09 0.04 85 1013.7
20260901204612 75 199 0.0 0.0 0.00 0.09 0.04 85 1013.7
20260901204112 75 199 0.0 0.0 0.00 0.09 0.04 85 1013.8
20260901203613 75 199 0.0 0.0 0.00 0.09 0.04 85 1013.8
20260901203112 74 199 0.0 0.0 0.00 0.09 0.04 86 1013.7
20260901202613 74 198 0.0 0.0 0.00 0.09 0.04 85 1013.8
20260901202113 74 198 0.0 0.0 0.00 0.09 0.04 85 1014.0
20260901201611 75 199 0.0 0.0 0.00 0.09 0.04 85 1014.1
20260901201110 75 199 0.0 0.0 0.00 0.09 0.04 85 1014.0
20260901200614 75 199 0.0 0.0 0.00 0.10 0.04 84 1014.0
20260901200108 75 199 0.0 0.0 0.00 0.10 0.04 84 1014.0
20260901195609 76 199 0.0 0.0 0.00 0.11 0.04 84 1013.9
20260901195109 76 199 0.0 0.0 0.00 0.13 0.04 83 1014.0
20260901194609 76 199 0.0 0.0 0.00 0.14 0.04 83 1014.0
20260901194109 76 199 0.0 0.0 0.00 0.15 0.04 82 1014.0
20260901193609 77 199 0.0 0.0 0.00 0.15 0.04 82 1013.9
20260901193107 77 199 0.0 0.0 0.00 0.16 0.04 83 1014.0
20260901192606 77 199 0.0 0.0 0.00 0.17 0.04 82 1013.9
20260901192104 76 199 0.0 0.0 0.00 0.18 0.04 83 1013.9
20260901191605 76 199 0.0 0.0 0.00 0.19 0.04 83 1014.0
20260901191104 76 199 0.0 0.0 0.00 0.21 0.04 82 1013.9
20260901190603 76 199 0.0 0.0 0.00 0.21 0.04 85 1013.9
20260901190105 75 199 0.0 0.0 0.00 0.21 0.04 84 1013.9
20260901185603 75 199 0.0 0.0 0.00 0.22 0.04 85 1013.8
20260901185103 75 199 0.0 1.0 0.00 0.23 0.04 84 1013.9
20260901184602 75 199 0.0 1.0 0.00 0.23 0.04 84 1014.0
20260901184102 75 200 0.0 0.0 0.00 0.24 0.04 85 1014.1
20260901183602 75 200 0.0 0.0 0.00 0.24 0.04 85 1014.1
20260901183102 75 200 0.0 1.0 0.00 0.24 0.04 85 1014.1
20260901182602 75 200 0.0 1.0 0.00 0.24 0.04 85 1014.1
20260901182103 75 200 0.0 0.0 0.00 0.24 0.04 85 1014.0
20260901181602 75 205 0.0 0.0 0.00 0.25 0.04 85 1013.9
20260901181102 75 206 0.0 0.0 0.00 0.27 0.04 85 1014.0
20260901180602 75 206 0.0 0.0 0.00 0.31 0.04 86 1013.9
20260901175603 75 211 0.0 0.0 0.00 0.43 0.04 85 1013.7
20260901175102 76 211 0.0 0.0 0.00 0.47 0.04 85 1013.7
20260901174602 76 213 0.0 1.0 0.00 0.49 0.04 84 1013.7
20260901174102 76 213 0.0 1.0 0.00 0.50 0.04 85 1013.6
20260901173603 76 224 0.0 0.0 0.00 0.52 0.04 83 1013.6
20260901173102 77 225 0.0 0.0 0.00 0.55 0.04 84 1013.5
20260901172603 77 229 0.0 0.0 0.00 0.60 0.04 84 1013.6
20260901172103 77 229 0.0 0.0 0.00 0.63 0.04 82 1013.5
20260901171602 77 229 0.0 0.0 0.00 0.63 0.04 82 1013.4
20260901171102 77 229 0.0 0.0 0.00 0.64 0.04 83 1013.3
20260901170602 77 229 0.0 0.0 0.00 0.64 0.04 83 1013.3
20260901165602 77 233 0.0 0.0 0.00 0.64 0.04 84 1013.2
20260901165102 77 234 0.0 0.0 0.00 0.64 0.04 83 1013.2
20260901164603 77 233 0.0 0.0 0.00 0.65 0.04 82 1013.1
20260901164103 77 233 0.0 0.0 0.00 0.65 0.04 84 1013.2
20260901163602 77 233 0.0 1.0 0.00 0.65 0.04 83 1013.1
20260901163102 78 233 0.0 1.0 0.00 0.65 0.04 82 1013.2
20260901162602 78 232 0.0 0.0 0.00 0.65 0.04 82 1013.1
20260901162103 79 232 0.0 0.0 0.00 0.65 0.04 80 1013.1
20260901161602 80 232 0.0 2.0 0.00 0.65 0.04 78 1012.9
20260901161103 80 232 0.0 2.0 0.00 0.65 0.04 79 1013.0
20260901160602 80 232 0.0 0.0 0.00 0.65 0.04 80 1012.9
20260901155603 80 232 0.0 0.0 0.00 0.65 0.04 79 1012.8
20260901155103 79 232 0.0 2.0 0.00 0.65 0.04 81 1012.8